sat.trackr.live / text

‹ back to catalog

STARLINK-34254

NORAD 64136 · 2025-111P

PAYLOAD ACTIVE UNKNOWN

§ Identity

Operator
Country
US
Launch date
2025-05-24
Launch site
AFETR
Launch vehicle
Mass (kg)
RCS (m²)

Purposes: comms

External: N2YO · Heavens-Above · Gunter

§ Orbital elements

Epoch: 2026-05-24T23:22:09.827040Z

Period
94.27 min
Inclination
43.0013°
Eccentricity
0.0000907
Mean motion
15.27592595 rev/d
Perigee alt
482.4 km
Apogee alt
483.6 km
Semi-major
6,861.1 km
B*
5.4982e-4
RAAN
6.7515°
Arg perigee
278.6425°
Mean anomaly
81.4324°
Rev number
5,713

§ Raw data

STARLINK-342541 64136U 25111P   26144.97372485  .00014904  00000+0  54982-3 0  99902 64136  43.0013   6.7515 0000907 278.6425  81.4324 15.27592595 57135

JSON: /api/v1/satellites/64136 · /tle

For live sub-satellite position, see the globe view (requires WebGL).

§ Visibility from observer

Set your observer location to see the next 7 days of passes ≥ 10°. The values pass through the URL so the page stays shareable.

No JS? Fill the form by hand. The geolocation button needs JavaScript.